AXM6126 WMKK-WMKP

Flight info

Callsign AXM6126
Flight time 0h 33m
Altitude 22000
Route ATIMU1D ATIMU Y506 TEPUS DCT GORVU
Aircraft A320/M-SDE3FGHIRWY/LB1

Departure

Time 2026-04-25 14:08
Airport Kuala Lumpur International Airport (WMKK)

Arrival

Time 2026-04-25 14:41
Airport Penang International Airport (WMKP)
Time Latitude Longitude Altitude Speed Heading
2026-04-25 13:34 2.73974 101.68386 42 ft 0 kts 328°
2026-04-25 13:56 2.73962 101.68393 42 ft 4 kts 326°
2026-04-25 13:56 2.73939 101.68409 42 ft 4 kts 326°
2026-04-25 13:56 2.73919 101.68425 42 ft 4 kts 306°
2026-04-25 13:57 2.73908 101.68448 42 ft 4 kts 264°
2026-04-25 13:57 2.73912 101.68461 42 ft 1 kts 236°
2026-04-25 13:57 2.73914 101.68465 42 ft 0 kts 236°
2026-04-25 13:59 2.73889 101.68427 42 ft 11 kts 236°
2026-04-25 13:59 2.73833 101.68343 39 ft 16 kts 237°
2026-04-25 14:00 2.73770 101.68249 42 ft 16 kts 236°
2026-04-25 14:00 2.73704 101.68173 40 ft 11 kts 185°
2026-04-25 14:00 2.73638 101.68206 40 ft 10 kts 145°
2026-04-25 14:00 2.73569 101.68255 37 ft 15 kts 145°
2026-04-25 14:01 2.73483 101.68314 40 ft 15 kts 146°
2026-04-25 14:01 2.73399 101.68370 37 ft 16 kts 146°
2026-04-25 14:01 2.73307 101.68432 40 ft 16 kts 146°
2026-04-25 14:01 2.73218 101.68493 40 ft 15 kts 146°
2026-04-25 14:02 2.73122 101.68554 38 ft 17 kts 147°
2026-04-25 14:02 2.73018 101.68624 40 ft 19 kts 148°
2026-04-25 14:02 2.72905 101.68699 40 ft 20 kts 147°
2026-04-25 14:02 2.72867 101.68726 40 ft 20 kts 144°
2026-04-25 14:03 2.72677 101.68854 40 ft 21 kts 144°
2026-04-25 14:03 2.72553 101.68941 40 ft 22 kts 146°
2026-04-25 14:03 2.72418 101.69030 40 ft 24 kts 146°
2026-04-25 14:03 2.72275 101.69126 37 ft 25 kts 146°
2026-04-25 14:04 2.72126 101.69228 40 ft 27 kts 146°
2026-04-25 14:04 2.71975 101.69328 40 ft 22 kts 146°
2026-04-25 14:04 2.71877 101.69393 39 ft 13 kts 151°
2026-04-25 14:04 2.71806 101.69368 40 ft 11 kts 232°
2026-04-25 14:05 2.71764 101.69304 39 ft 10 kts 239°
2026-04-25 14:05 2.71758 101.69240 39 ft 9 kts 290°
2026-04-25 14:05 2.71781 101.69191 39 ft 8 kts 297°
2026-04-25 14:05 2.71811 101.69134 38 ft 11 kts 297°
2026-04-25 14:06 2.71851 101.69074 39 ft 10 kts 320°
2026-04-25 14:06 2.71877 101.69056 37 ft 0 kts 326°
2026-04-25 14:07 2.71917 101.69028 38 ft 33 kts 326°
2026-04-25 14:08 2.72331 101.68750 37 ft 106 kts 326°
2026-04-25 14:08 2.73120 101.68222 39 ft 161 kts 326°
2026-04-25 14:08 2.74129 101.67560 386 ft 180 kts 327°
2026-04-25 14:08 2.75190 101.66868 1095 ft 181 kts 327°
2026-04-25 14:09 2.76257 101.66149 1731 ft 193 kts 326°
2026-04-25 14:09 2.77423 101.65357 2063 ft 214 kts 327°
2026-04-25 14:09 2.78717 101.64483 2403 ft 236 kts 328°
2026-04-25 14:09 2.79167 101.64180 2520 ft 244 kts 328°
2026-04-25 14:10 2.81671 101.62497 3526 ft 268 kts 328°
2026-04-25 14:10 2.83234 101.61446 4351 ft 273 kts 328°
2026-04-25 14:10 2.84813 101.60372 5197 ft 277 kts 327°
2026-04-25 14:10 2.86383 101.59226 6034 ft 280 kts 324°
2026-04-25 14:11 2.87943 101.58039 6844 ft 284 kts 324°
2026-04-25 14:11 2.89539 101.56811 7646 ft 288 kts 324°
2026-04-25 14:11 2.91140 101.55581 8401 ft 292 kts 324°
2026-04-25 14:11 2.92767 101.54338 9132 ft 296 kts 324°
2026-04-25 14:12 2.94415 101.53086 9841 ft 300 kts 324°
2026-04-25 14:12 2.96099 101.51811 10363 ft 312 kts 324°
2026-04-25 14:12 2.97896 101.50454 10545 ft 335 kts 324°
2026-04-25 14:12 2.99780 101.49034 10966 ft 346 kts 324°
2026-04-25 14:13 3.01731 101.47561 11597 ft 351 kts 324°
2026-04-25 14:13 3.03688 101.46082 12267 ft 355 kts 324°
2026-04-25 14:13 3.05671 101.44583 12917 ft 359 kts 324°
2026-04-25 14:13 3.07671 101.43072 13551 ft 363 kts 324°
2026-04-25 14:14 3.09695 101.41541 14166 ft 367 kts 324°
2026-04-25 14:14 3.11745 101.39994 14758 ft 370 kts 324°
2026-04-25 14:14 3.13814 101.38434 15356 ft 374 kts 324°
2026-04-25 14:14 3.15904 101.36858 15910 ft 378 kts 324°
2026-04-25 14:15 3.18010 101.35271 16484 ft 382 kts 325°
2026-04-25 14:15 3.18727 101.34730 16675 ft 383 kts 325°
2026-04-25 14:15 3.22290 101.32041 17567 ft 389 kts 325°
2026-04-25 14:15 3.24457 101.30403 18088 ft 392 kts 325°
2026-04-25 14:16 3.26648 101.28748 18599 ft 396 kts 325°
2026-04-25 14:16 3.28853 101.27081 19118 ft 399 kts 325°
2026-04-25 14:16 3.31072 101.25406 19629 ft 401 kts 325°
2026-04-25 14:16 3.33309 101.23713 20131 ft 404 kts 325°
2026-04-25 14:17 3.35558 101.22014 20630 ft 407 kts 325°
2026-04-25 14:17 3.37824 101.20298 21114 ft 410 kts 325°
2026-04-25 14:17 3.40105 101.18574 21588 ft 412 kts 325°
2026-04-25 14:17 3.42399 101.16840 22057 ft 415 kts 324°
2026-04-25 14:18 3.44710 101.15094 22516 ft 418 kts 325°
2026-04-25 14:18 3.47036 101.13336 22957 ft 420 kts 324°
2026-04-25 14:18 3.49376 101.11570 23371 ft 423 kts 325°
2026-04-25 14:18 3.51735 101.09791 23767 ft 425 kts 324°
2026-04-25 14:19 3.54099 101.08003 23890 ft 424 kts 324°
2026-04-25 14:19 3.56414 101.06251 23913 ft 412 kts 324°
2026-04-25 14:19 3.58685 101.04533 23916 ft 409 kts 324°
2026-04-25 14:19 3.60190 101.03394 23923 ft 410 kts 324°
2026-04-25 14:20 3.63232 101.01089 23924 ft 410 kts 324°
2026-04-25 14:20 3.63966 101.00533 23926 ft 410 kts 324°
2026-04-25 14:20 3.67853 100.97847 23921 ft 407 kts 334°
2026-04-25 14:20 3.69582 100.97039 23928 ft 406 kts 338°
2026-04-25 14:21 3.73010 100.95522 23925 ft 407 kts 338°
2026-04-25 14:21 3.75595 100.94370 23925 ft 406 kts 338°
2026-04-25 14:21 3.78173 100.93218 23924 ft 406 kts 338°
2026-04-25 14:21 3.80757 100.92067 23923 ft 406 kts 338°
2026-04-25 14:22 3.83339 100.90918 23922 ft 406 kts 338°
2026-04-25 14:22 3.85921 100.89768 23920 ft 406 kts 338°
2026-04-25 14:22 3.88502 100.88618 23921 ft 406 kts 338°
2026-04-25 14:22 3.91085 100.87468 23918 ft 406 kts 338°
2026-04-25 14:23 3.93661 100.86321 23920 ft 406 kts 338°
2026-04-25 14:23 3.95411 100.85542 23917 ft 406 kts 338°
2026-04-25 14:23 3.98826 100.84023 23917 ft 406 kts 338°
2026-04-25 14:23 4.01418 100.82870 23917 ft 406 kts 338°
2026-04-25 14:24 4.04000 100.81722 23915 ft 406 kts 338°
2026-04-25 14:24 4.06586 100.80570 23912 ft 407 kts 338°
2026-04-25 14:24 4.09168 100.79420 23915 ft 407 kts 338°
2026-04-25 14:24 4.11754 100.78266 23912 ft 407 kts 338°
2026-04-25 14:25 4.13496 100.77489 23913 ft 407 kts 338°
2026-04-25 14:25 4.16925 100.75960 23915 ft 407 kts 338°
2026-04-25 14:25 4.18673 100.75184 23915 ft 407 kts 338°
2026-04-25 14:25 4.20386 100.74431 23915 ft 407 kts 338°
2026-04-25 14:26 4.23863 100.72918 23916 ft 407 kts 338°
2026-04-25 14:26 4.26463 100.71792 23914 ft 407 kts 338°
2026-04-25 14:26 4.29059 100.70669 23918 ft 407 kts 338°
2026-04-25 14:26 4.31657 100.69545 23919 ft 407 kts 338°
2026-04-25 14:27 4.34254 100.68416 23917 ft 407 kts 338°
2026-04-25 14:27 4.36847 100.67284 23916 ft 407 kts 338°
2026-04-25 14:27 4.39440 100.66153 23917 ft 406 kts 338°
2026-04-25 14:27 4.41995 100.65039 23917 ft 406 kts 338°
2026-04-25 14:28 4.44589 100.63910 23915 ft 406 kts 338°
2026-04-25 14:28 4.47181 100.62780 23911 ft 406 kts 338°
2026-04-25 14:28 4.49792 100.61635 23927 ft 415 kts 338°
2026-04-25 14:28 4.52422 100.60471 23922 ft 406 kts 338°
2026-04-25 14:29 4.54912 100.59242 23786 ft 396 kts 329°
2026-04-25 14:29 4.57181 100.57630 22896 ft 405 kts 324°
2026-04-25 14:29 4.59434 100.55919 22246 ft 407 kts 324°
2026-04-25 14:29 4.61670 100.54184 21716 ft 405 kts 323°
2026-04-25 14:30 4.63885 100.52452 21215 ft 403 kts 323°
2026-04-25 14:30 4.68251 100.49054 19670 ft 392 kts 324°
2026-04-25 14:30 4.70399 100.47395 18796 ft 387 kts 324°
2026-04-25 14:31 4.72524 100.45763 17933 ft 383 kts 324°
2026-04-25 14:31 4.74628 100.44154 17085 ft 378 kts 324°
2026-04-25 14:31 4.76717 100.42555 16107 ft 377 kts 324°
2026-04-25 14:31 4.78797 100.40962 15106 ft 376 kts 324°
2026-04-25 14:32 4.80873 100.39370 14104 ft 375 kts 324°
2026-04-25 14:32 4.82940 100.37784 13107 ft 373 kts 324°
2026-04-25 14:32 4.84991 100.36211 12119 ft 369 kts 324°
2026-04-25 14:32 4.87021 100.34656 11144 ft 365 kts 323°
2026-04-25 14:33 4.89026 100.33120 10176 ft 360 kts 323°
2026-04-25 14:33 4.90998 100.31609 9230 ft 354 kts 323°
2026-04-25 14:33 4.92939 100.30121 8441 ft 344 kts 324°
2026-04-25 14:33 4.94800 100.28690 7817 ft 331 kts 323°
2026-04-25 14:34 4.96591 100.27309 7204 ft 319 kts 323°
2026-04-25 14:34 4.98319 100.25979 6613 ft 308 kts 324°
2026-04-25 14:34 4.99990 100.24698 6043 ft 298 kts 323°
2026-04-25 14:34 5.01609 100.23455 5490 ft 288 kts 323°
2026-04-25 14:35 5.03172 100.22253 4954 ft 278 kts 323°
2026-04-25 14:35 5.04683 100.21092 4445 ft 269 kts 323°
2026-04-25 14:35 5.06105 100.20000 4330 ft 245 kts 323°
2026-04-25 14:35 5.07401 100.19004 4277 ft 225 kts 323°
2026-04-25 14:36 5.08591 100.18087 4207 ft 211 kts 323°
2026-04-25 14:36 5.09746 100.17198 4116 ft 207 kts 323°
2026-04-25 14:36 5.10894 100.16314 4037 ft 209 kts 323°
2026-04-25 14:36 5.12043 100.15435 3943 ft 207 kts 323°
2026-04-25 14:37 5.13230 100.14632 3838 ft 205 kts 340°
2026-04-25 14:37 5.14622 100.14486 3753 ft 202 kts 13°
2026-04-25 14:37 5.15873 100.15113 3429 ft 206 kts 41°
2026-04-25 14:37 5.16935 100.16088 3092 ft 207 kts 43°
2026-04-25 14:38 5.17992 100.17063 2825 ft 206 kts 42°
2026-04-25 14:38 5.19041 100.18016 2527 ft 201 kts 42°
2026-04-25 14:38 5.20055 100.18935 2255 ft 191 kts 43°
2026-04-25 14:38 5.20899 100.19700 2042 ft 181 kts 42°
2026-04-25 14:39 5.21809 100.20524 1807 ft 171 kts 42°
2026-04-25 14:39 5.22594 100.21237 1619 ft 162 kts 42°
2026-04-25 14:39 5.23416 100.21980 1420 ft 152 kts 43°
2026-04-25 14:39 5.24180 100.22671 1209 ft 144 kts 43°
2026-04-25 14:40 5.24917 100.23338 1018 ft 142 kts 43°
2026-04-25 14:40 5.25646 100.23998 829 ft 141 kts 43°
2026-04-25 14:40 5.26363 100.24646 645 ft 140 kts 42°
2026-04-25 14:40 5.27093 100.25309 467 ft 139 kts 43°
2026-04-25 14:41 5.27811 100.25959 261 ft 139 kts 42°
2026-04-25 14:41 5.28529 100.26617 93 ft 140 kts 42°
2026-04-25 14:41 5.29204 100.27223 24 ft 108 kts 43°
2026-04-25 14:41 5.29546 100.27535 23 ft 38 kts 42°
2026-04-25 14:42 5.29726 100.27697 24 ft 32 kts 42°
2026-04-25 14:42 5.29778 100.27745 25 ft 30 kts 42°
2026-04-25 14:42 5.30049 100.27845 24 ft 21 kts 11°
2026-04-25 14:42 5.30125 100.27803 23 ft 11 kts 251°
2026-04-25 14:43 5.30085 100.27761 25 ft 8 kts 222°
2026-04-25 14:43 5.30054 100.27733 23 ft 4 kts 222°
2026-04-25 14:43 5.30019 100.27701 23 ft 9 kts 222°
2026-04-25 14:43 5.29985 100.27670 23 ft 4 kts 222°
2026-04-25 14:44 5.29952 100.27640 24 ft 12 kts 223°
2026-04-25 14:44 5.29903 100.27593 23 ft 7 kts 223°
2026-04-25 14:44 5.29840 100.27534 23 ft 17 kts 223°
2026-04-25 14:44 5.29758 100.27462 25 ft 14 kts 221°
2026-04-25 14:45 5.29690 100.27401 23 ft 16 kts 221°
2026-04-25 14:45 5.29605 100.27322 23 ft 15 kts 223°
2026-04-25 14:45 5.29535 100.27258 23 ft 15 kts 222°
2026-04-25 14:45 5.29434 100.27168 24 ft 20 kts 221°
2026-04-25 14:46 5.29352 100.27091 24 ft 11 kts 228°
2026-04-25 14:46 5.29345 100.27038 26 ft 6 kts 295°
2026-04-25 14:46 5.29363 100.27015 24 ft 2 kts 311°
2026-04-25 14:46 5.29379 100.26997 25 ft 5 kts 311°
2026-04-25 14:47 5.29409 100.26958 23 ft 8 kts 292°
2026-04-25 14:47 5.29403 100.26923 23 ft 11 kts 242°
2026-04-25 14:47 5.29347 100.26870 23 ft 5 kts 221°
2026-04-25 14:47 5.29315 100.26842 23 ft 12 kts 221°
2026-04-25 14:48 5.29265 100.26797 23 ft 7 kts 222°
2026-04-25 14:48 5.29236 100.26770 24 ft 7 kts 221°
2026-04-25 14:48 5.29207 100.26745 23 ft 4 kts 222°
2026-04-25 14:48 5.29203 100.26732 23 ft 3 kts 266°
2026-04-25 14:49 5.29216 100.26710 25 ft 3 kts 309°
2026-04-25 14:49 5.29230 100.26694 24 ft 4 kts 312°
2026-04-25 14:49 5.29244 100.26678 23 ft 2 kts 313°
2026-04-25 14:49 5.29251 100.26671 23 ft 0 kts 312°